[[{"header":{"parameterUnit":"m.s-1","parameterCategory":1,"la1":30.2991,"la2":30.254,"lo1":-89.0895,"lo2":-89.0444,"dy":0.0017,"dx":0.0017,"nx":28,"ny":28,"refTime":"2024-05-22T03:00:00:Z","depth":0,"parameterNumber":2,"parameterNumberName":"U-component_of_WINDS"},"data":[0,0,0,0,0,0,0,0,0,0,0,0,0,0,0,0,0,0,0,0,0,0,0,0,0,0,0,0,0,0,0,0,0,0,0,0,0,0,0,0,0,0,0,0,0,0,0,0,0,0,0,0,0,0,0,0,0,0,-3.1976,-3.1976,0,-3.197,-3.197,-3.197,-3.1901,-3.19,-3.1898,-3.1896,-3.1891,-3.1892,-3.1893,0,0,0,0,0,0,0,0,0,0,0,0,0,-3.1929,-3.1931,-3.1976,-3.1976,-3.1976,-3.197,-3.197,-3.197,-3.1902,-3.19,-3.1898,-3.1896,-3.189,-3.1892,-3.1894,0,0,0,0,0,0,0,0,0,0,0,0,0,-3.1939,-3.1931,-3.1976,-3.1941,-3.1938,-3.197,-3.197,-3.197,-3.1902,-3.19,-3.1897,-3.1895,-3.1889,-3.1892,-3.1894,-3.1959,0,0,-3.19,-3.1901,0,0,0,0,0,0,0,0,-3.1939,-3.1941,-3.1946,-3.1944,-3.194,-3.1934,-3.1951,-3.1966,-3.1903,-3.1916,-3.1896,-3.1893,-3.1907,-3.1908,-3.1912,-3.1959,-3.1959,-3.1901,-3.1902,-3.1903,-3.1903,0,0,0,0,0,0,0,-3.1938,-3.1941,-3.1974,-3.1947,-3.1943,-3.1926,-3.1925,-3.1954,-3.1926,-3.1914,-3.1909,-3.191,-3.1905,-3.191,-3.1912,-3.1959,-3.1901,-3.1902,-3.1904,-3.1905,-3.2059,-3.2062,0,0,0,0,0,0,-3.1942,-3.1941,-3.1974,-3.1974,-3.1933,-3.1929,-3.1928,-3.1939,-3.1926,-3.1921,-3.1912,-3.1907,-3.1908,-3.1909,-3.1911,-3.1986,-3.1903,-3.1905,-3.1906,-3.2056,-3.206,-3.2063,0,0,0,0,0,0,-3.1942,-3.1946,-3.1974,-3.1956,-3.1958,-3.1933,-3.1946,-3.194,-3.1945,-3.1924,-3.1918,-3.1922,-3.1906,-3.1908,-3.1948,-3.1985,-3.1906,-3.1908,-3.2053,-3.2057,-3.2061,-3.2137,0,0,0,0,0,0,-3.194,-3.1946,-3.197,-3.1957,-3.1959,-3.2011,-3.1948,-3.1942,-3.1949,-3.1942,-3.1932,-3.1928,-3.1904,-3.1945,-3.195,-3.1987,-3.191,-3.2049,-3.2055,-3.206,-3.2131,-3.2143,-3.2154,0,0,0,0,0,-3.1939,-3.1992,-3.1972,-3.1976,-3.1989,-3.2013,-3.2014,-3.1985,-3.1952,-3.1976,-3.1963,-3.1928,-3.1981,-3.195,-3.1955,-3.1992,-3.2047,-3.2053,-3.2059,-3.2126,-3.2141,-3.2154,0,0,0,0,0,0,-3.2009,-3.1989,-3.1967,-3.2016,-3.2017,-3.2001,-3.203,-3.2002,-3.2012,-3.2005,-3.1969,-3.1968,-3.2013,-3.2007,-3.1972,-3.2055,-3.2008,-3.2016,-3.2057,-3.2071,-3.2082,-3.2081,-3.1911,0,0,0,0,0,-3.203,-3.2051,-3.2033,-3.2079,-3.208,-3.2056,-3.2065,-3.2043,-3.2042,-3.2042,-3.2031,-3.2032,-3.2048,-3.206,-3.2074,-3.2131,-3.2128,-3.216,-3.2172,-3.2181,-3.2187,-3.2217,-3.2231,-3.2083,-3.2083,-3.2083,0,0,-3.2074,-3.2066,-3.2081,-3.2093,-3.209,-3.2113,-3.2056,-3.2082,-3.2099,-3.2046,-3.2082,-3.2075,-3.2073,-3.2122,-3.2143,-3.2119,-3.2228,-3.2189,-3.2197,-3.2197,-3.2225,-3.2239,-3.2251,-3.2088,-3.2087,-3.2086,0,0,-3.2165,-3.2162,-3.2199,-3.2199,-3.2196,-3.218,-3.219,-3.2179,-3.2172,-3.2208,-3.2169,-3.2189,-3.2218,-3.2218,-3.2223,-3.2317,-3.2285,-3.2323,-3.2381,-3.2411,-3.2422,-3.2432,-3.2465,-3.2477,-3.233,-3.233,-3.233,0,-3.222,-3.2252,-3.2222,-3.2251,-3.2257,-3.2212,-3.225,-3.2251,-3.2253,-3.2259,-3.2232,-3.2268,-3.2264,-3.2312,-3.2336,-3.2341,-3.235,-3.2322,-3.2423,-3.2433,-3.2442,-3.2472,-3.2485,-3.2335,-3.2334,-3.2334,-3.2333,0,-3.2319,-3.2342,-3.2373,-3.2376,-3.2387,-3.242,-3.2396,-3.241,-3.2389,-3.2375,-3.2414,-3.2408,-3.2419,-3.243,-3.2409,-3.2476,-3.246,-3.243,-3.238,-3.2461,-3.2489,-3.25,-3.2341,-3.2339,-3.2338,-3.2337,0,0,-3.245,-3.2439,-3.245,-3.2452,-3.2447,-3.2465,-3.2497,-3.2509,-3.2522,-3.2526,-3.2552,-3.2579,-3.2551,-3.2555,-3.2535,-3.2561,-3.2635,-3.2526,-3.2526,-3.2545,-3.2707,-3.2729,-3.2743,-3.2616,-3.2618,-3.2619,-3.2707,0,-3.2536,-3.2589,-3.2565,-3.2621,-3.2642,-3.2601,-3.2629,-3.263,-3.2619,-3.2636,-3.2625,-3.2644,-3.2606,-3.2608,-3.2633,-3.2621,-3.2667,-3.2615,-3.2638,-3.2639,-3.2637,-3.2758,-3.2781,-3.2863,-3.2718,-3.272,-3.2721,0,-3.2642,-3.2652,-3.271,-3.2703,-3.2711,-3.2736,-3.2746,-3.2763,-3.2764,-3.2754,-3.2761,-3.2735,-3.2766,-3.2721,-3.2763,-3.2728,-3.2737,-3.2733,-3.2736,-3.2735,-3.2683,-3.2758,-3.2889,-3.29,-3.2738,-3.2737,-3.2736,0,-3.273,-3.2758,-3.2796,-3.2799,-3.2792,-3.2811,-3.2809,-3.2807,-3.2816,-3.2826,-3.2831,-3.2845,-3.2851,-3.2862,-3.284,-3.2809,-3.2886,-3.2838,-3.2878,-3.2879,-3.2893,-3.2892,-3.3025,-3.2904,-3.2904,-3.2903,-3.2903,0,-3.2828,-3.2864,-3.2835,-3.2859,-3.2899,-3.2872,-3.2913,-3.2907,-3.2906,-3.2928,-3.2894,-3.2915,-3.2886,-3.2905,-3.2889,-3.2926,-3.293,-3.2923,-3.2917,-3.2924,-3.2925,-3.2927,-3.292,-3.2907,-3.2906,-3.2905,-3.2905,0,-3.2931,-3.2913,-3.2952,-3.2943,-3.2942,-3.2972,-3.2964,-3.2986,-3.2974,-3.3002,-3.3007,-3.2989,-3.301,-3.299,-3.3009,-3.2998,-3.3048,-3.3036,-3.3047,-3.3043,-3.3083,-3.3079,-3.3221,-3.3237,-3.3107,-3.3109,-3.311,0,-3.2993,-3.302,-3.3015,-3.3027,-3.3027,-3.3047,-3.3057,-3.3032,-3.3044,-3.3048,-3.3069,-3.3087,-3.3099,-3.3134,-3.3122,-3.3137,-3.3123,-3.3172,-3.3125,-3.3131,-3.3122,-3.3119,-3.3121,-3.3181,-3.3182,-3.3183,-3.3184,0,-3.3104,-3.3094,-3.3109,-3.3122,-3.3135,-3.3144,-3.315,-3.3162,-3.3137,-3.3152,-3.3172,-3.3182,-3.3203,-3.322,-3.3232,-3.323,-3.3203,-3.32,-3.321,-3.3215,-3.322,-3.3216,-3.3071,-3.3196,-3.3195,-3.3194,-3.3193,-3.3193,-3.3187,-3.3209,-3.3209,-3.3228,-3.323,-3.3237,-3.3257,-3.3249,-3.3266,-3.328,-3.3265,-3.329,-3.3292,-3.3304,-3.3306,-3.3326,-3.3305,-3.3319,-3.3323,-3.3326,-3.3331,-3.322,-3.3328,-3.3328,-3.3327,-3.3327,-3.3327,0,-3.3295,-3.3293,-3.3311,-3.3321,-3.3336,-3.3311,-3.3317,-3.3331,-3.3353,-3.3357,-3.3371,-3.3395,-3.3412,-3.3404,-3.3419,-3.3436,-3.3424,-3.3441,-3.3438,-3.3438,-3.3349,-3.3338,-3.345,-3.345,-3.345,-3.345,-3.345,-3.345,-3.3352,-3.3389,-3.338,-3.3418,-3.3416,-3.3441,-3.3446,-3.3453,-3.3456,-3.3484,-3.3499,-3.3494,-3.3492,-3.3508,-3.3523,-3.352,-3.3526,-3.3547,-3.354,-3.3456,-3.3444,-3.3432,-3.3422,-3.3549,-3.355,-3.3626,-3.3627,-3.3627]},{"header":{"parameterUnit":"m.s-1","parameterCategory":1,"la1":30.2991,"la2":30.254,"lo1":-89.0895,"lo2":-89.0444,"dy":0.0017,"dx":0.0017,"nx":28,"ny":28,"refTime":"2024-05-22T03:00:00:Z","depth":0,"parameterNumber":3,"parameterNumberName":"V-component_of_WINDS"},"data":[0,0,0,0,0,0,0,0,0,0,0,0,0,0,0,0,0,0,0,0,0,0,0,0,0,0,0,0,0,0,0,0,0,0,0,0,0,0,0,0,0,0,0,0,0,0,0,0,0,0,0,0,0,0,0,0,0,0,4.239,4.239,0,4.2378,4.2378,4.2378,4.2385,4.2385,4.2385,4.2386,4.237,4.2369,4.2368,0,0,0,0,0,0,0,0,0,0,0,0,0,4.2416,4.2416,4.239,4.239,4.239,4.2378,4.2378,4.2378,4.2384,4.2385,4.2385,4.2386,4.237,4.2369,4.2368,0,0,0,0,0,0,0,0,0,0,0,0,0,4.2405,4.2416,4.239,4.2392,4.2392,4.2378,4.2378,4.2378,4.2384,4.2385,4.2385,4.2386,4.237,4.2369,4.2368,4.2351,0,0,4.2365,4.2364,0,0,0,0,0,0,0,0,4.2405,4.2404,4.2392,4.2392,4.2392,4.2383,4.2381,4.2369,4.2384,4.2387,4.2386,4.2386,4.2374,4.2372,4.2369,4.235,4.235,4.2365,4.2364,4.2363,4.2363,0,0,0,0,0,0,0,4.2406,4.2404,4.2385,4.2392,4.2392,4.2392,4.2391,4.2379,4.2377,4.2387,4.2387,4.2386,4.2374,4.237,4.2368,4.2349,4.2365,4.2364,4.2363,4.2363,4.2317,4.2317,0,0,0,0,0,0,4.2407,4.2405,4.2386,4.2385,4.24,4.2392,4.239,4.2386,4.2378,4.2377,4.2386,4.2386,4.2371,4.237,4.2368,4.2348,4.2363,4.2362,4.2362,4.2318,4.2317,4.2317,0,0,0,0,0,0,4.2408,4.2405,4.2386,4.2395,4.2393,4.2391,4.2385,4.2385,4.2381,4.2377,4.2376,4.2382,4.2372,4.2369,4.2356,4.2348,4.2362,4.2361,4.2319,4.2318,4.2317,4.2308,0,0,0,0,0,0,4.2408,4.2406,4.24,4.2395,4.2392,4.2375,4.2385,4.2384,4.238,4.2381,4.2373,4.2373,4.2372,4.2357,4.2355,4.2347,4.236,4.2319,4.2318,4.2317,4.2309,4.2307,4.2306,0,0,0,0,0,4.2409,4.2397,4.2399,4.2397,4.2385,4.2374,4.2373,4.2373,4.2379,4.2373,4.237,4.2373,4.2349,4.2356,4.2353,4.2344,4.232,4.2318,4.2317,4.231,4.2308,4.2306,0,0,0,0,0,0,4.2399,4.2396,4.2399,4.2384,4.238,4.2376,4.2367,4.2371,4.2363,4.2364,4.2364,4.2362,4.2348,4.2345,4.2352,4.2328,4.2335,4.2333,4.2331,4.2328,4.2327,4.2328,4.2359,0,0,0,0,0,4.2395,4.2388,4.2385,4.2373,4.237,4.2369,4.2365,4.2366,4.2361,4.2358,4.2355,4.2348,4.234,4.2334,4.2326,4.2309,4.2308,4.2302,4.23,4.2298,4.2297,4.2288,4.2286,4.2313,4.2313,4.2313,0,0,4.2386,4.2384,4.2379,4.2371,4.2367,4.2359,4.2368,4.2358,4.2352,4.2356,4.2344,4.2341,4.2334,4.2319,4.2312,4.2316,4.2289,4.2297,4.2296,4.2295,4.2287,4.2284,4.2282,4.2312,4.2312,4.2312,0,0,4.2367,4.2365,4.2355,4.2351,4.2347,4.2346,4.2344,4.234,4.2338,4.2326,4.233,4.2322,4.2306,4.2302,4.2298,4.2278,4.2281,4.2275,4.2266,4.2258,4.2256,4.2254,4.2247,4.2245,4.2274,4.2274,4.2274,0,4.2357,4.2346,4.2348,4.234,4.2336,4.2341,4.233,4.2327,4.2319,4.2316,4.232,4.2303,4.2298,4.2283,4.2278,4.2274,4.2271,4.2276,4.2256,4.2254,4.2252,4.2246,4.2244,4.2273,4.2273,4.2273,4.2273,0,4.2334,4.2326,4.2318,4.2313,4.2308,4.2298,4.2299,4.2293,4.2295,4.2294,4.2282,4.2277,4.2269,4.2265,4.2266,4.225,4.2252,4.2256,4.2263,4.2249,4.2243,4.2241,4.2272,4.2273,4.2273,4.2273,0,0,4.2307,4.2304,4.2301,4.2299,4.2295,4.2288,4.2279,4.2272,4.2268,4.2262,4.2254,4.2242,4.2246,4.2241,4.2242,4.2235,4.2221,4.224,4.224,4.2237,4.2204,4.2201,4.2198,4.2223,4.2222,4.2222,4.2204,0,4.2288,4.2273,4.2275,4.226,4.2253,4.2259,4.225,4.2247,4.2246,4.2239,4.2238,4.223,4.2235,4.2233,4.2226,4.2224,4.2214,4.2225,4.2215,4.2214,4.2217,4.2195,4.2192,4.2175,4.2202,4.2202,4.2201,0,4.2263,4.2259,4.2244,4.2242,4.2239,4.2232,4.2226,4.222,4.2216,4.2216,4.2211,4.2213,4.2203,4.2211,4.2198,4.2205,4.2201,4.22,4.2199,4.2198,4.2207,4.2193,4.217,4.2168,4.2198,4.2198,4.2198,0,4.2246,4.2236,4.2226,4.2224,4.2221,4.2216,4.2214,4.2211,4.2207,4.2202,4.2199,4.2192,4.2188,4.2183,4.2183,4.2189,4.217,4.2177,4.2169,4.2169,4.2165,4.2165,4.214,4.2162,4.2162,4.2162,4.2162,0,4.2225,4.2215,4.2218,4.2212,4.2202,4.2204,4.2194,4.2193,4.219,4.2183,4.2187,4.218,4.2181,4.2175,4.2174,4.2164,4.2162,4.2161,4.2161,4.2161,4.2161,4.2158,4.2159,4.2161,4.2161,4.2161,4.2162,0,4.2203,4.2205,4.2194,4.2193,4.2193,4.2185,4.2184,4.2178,4.2178,4.2169,4.2168,4.2167,4.216,4.216,4.215,4.2151,4.2138,4.2139,4.2139,4.214,4.2132,4.2132,4.2104,4.2101,4.2124,4.2124,4.2124,0,4.2189,4.2182,4.2181,4.2178,4.2176,4.217,4.2167,4.2169,4.2165,4.2161,4.2155,4.2149,4.2143,4.2131,4.2129,4.2123,4.2124,4.2115,4.2123,4.2123,4.2124,4.2125,4.2124,4.2113,4.2113,4.2112,4.2112,0,4.2165,4.2167,4.2162,4.2158,4.2154,4.215,4.2147,4.2144,4.2146,4.2141,4.2134,4.213,4.2122,4.2115,4.2109,4.2107,4.211,4.211,4.2108,4.2107,4.2108,4.2108,4.2135,4.211,4.211,4.2111,4.2111,4.2111,4.2147,4.2142,4.214,4.2135,4.2133,4.2131,4.2125,4.2126,4.212,4.2115,4.2116,4.2109,4.2105,4.2098,4.2095,4.2089,4.2092,4.2089,4.2088,4.2087,4.2086,4.2109,4.2088,4.2088,4.2088,4.2088,4.2088,0,4.2123,4.2123,4.2119,4.2115,4.2111,4.2115,4.2112,4.2108,4.2102,4.2099,4.2095,4.2087,4.2081,4.208,4.2074,4.2069,4.207,4.2067,4.2068,4.2067,4.2084,4.2086,4.2067,4.2067,4.2067,4.2067,4.2067,4.2067,4.2111,4.2102,4.2104,4.2094,4.2094,4.2087,4.2085,4.2083,4.2081,4.2073,4.2068,4.2068,4.2066,4.206,4.2054,4.2054,4.2052,4.2048,4.2049,4.2064,4.2066,4.2068,4.2071,4.2048,4.2048,4.2033,4.2033,4.2032]}]]